Location: Castillon
(43.0896°N, 0.2156°E)
Time: 02:46:09
(UTC+00:00)

Cosmos 1544 Rocket - Pass Details

Date: 16 June 2021
Orbit: 603 x 632 km, 82.5° (Epoch: 04 August)

Event Time Altitude Azimuth Distance (km) Brightness Sun altitude
Rises 21:59:54 0° 348° (NNW) 2,934 8.4 -18.0°
Reaches altitude 10° 22:02:10 10° 345° (NNW) 2,020 7.4 -18.2°
Maximum altitude 22:06:36 63° 265° (W) 702 3.8 -18.6°
Enters shadow 22:08:31 32° 195° (SSW) 1,080 4.4 -18.8°
